Simultaneous Nadir Overpasses (SNOs) Predictions

Prediction of SNOs between GOES-14 and AQUA Satellite Orbit:

Table of predicted SNOs for the next 14.0 days since TLE Epoch: 9/21/2018
Index Date Time (GOES-14) GOES-14 Lat,Lon AQUA Lat,Lon Distance(km) Time Diff (sec)
1 09/22/2018 20:26:45 -0.32,-104.17 0.03,-102.46 194.48 80
2 09/23/2018 08:47:59 0.30,-104.12 1.04,-107.62 397.43 80
3 09/25/2018 08:35:45 0.31,-104.11 0.41,-104.65 60.94 80
4 09/27/2018 08:20:52 0.31,-104.10 -0.21,-101.68 275.45 80
5 09/27/2018 20:42:15 -0.30,-104.14 -0.89,-106.87 311.25 80
6 09/29/2018 20:32:41 -0.30,-104.13 -0.27,-103.91 25.33 80
7 10/01/2018 20:20:27 -0.30,-104.13 0.36,-100.94 361.50 80
8 10/02/2018 08:41:42 0.28,-104.10 0.69,-106.10 227.31 80
9 10/04/2018 08:26:48 0.28,-104.09 0.05,-103.14 108.07 80
10 10/04/2018 20:48:12 -0.26,-104.08 -1.16,-108.33 482.94 80




NCC Satellite Simultaneous Nadir Overpasses (SNOs) Prediction Service
